Regional Weather Roundup
Issued by NWS Kansas City/Pleasant Hill, MO

Home | Current Version | Previous Version | Text Only | Print | Product List | Glossary On
Versions: 1 2 3 4 5 6 7 8 9 10 11 12 13 14 15 16 17 18 19 20 21 22 23 24 25 26 27 28 29 30 31 32 33 34 35 36 37 38 39 40 41 42 43 44 45 46 47 48 49 50
000
ASUS43 KEAX 261510
RWREAX

WEATHER ROUNDUP FOR EASTERN KANSAS AND NORTHWEST MISSOURI
NATIONAL WEATHER SERVICE KANSAS CITY/PLEASANT HILL MO
1000 AM CDT THU MAR 26 2015

KSZ040-057-103>105-MOZ028-029-037-043-261600-
...KANSAS CITY METROPOLITAN AREA...

CITY           SKY/WX    TMP DP  RH WIND       PRES   REMARKS
K.C. INTL      MOSUNNY   39  30  70 N8        30.22S WCI  33
K.C. DOWNTOWN  SUNNY     42  27  55 N12       30.22S
LEES SUMMIT    MOSUNNY   40  25  55 N15       30.21S WCI  32
OLATHE - IXD   SUNNY     39  29  67 N13       30.22F WCI  31
OLATHE - OJC   SUNNY     40  25  55 N13       30.21S WCI  32
LAWRENCE       SUNNY     40  29  64 N8        30.24S WCI  34

$$

MOZ001>008-011>017-020>025-030>033-038>040-044>046-053-054-261600-
...NORTHERN AND CENTRAL MISSOURI...

CITY           SKY/WX    TMP DP  RH WIND       PRES   REMARKS
ST. JOSEPH     SUNNY     40  30  67 N8        30.24S WCI  34
MOSBY          SUNNY     39  28  65 N12       30.22S WCI  32
WARRENSBURG    MOSUNNY   37  30  75 N13       30.20S WCI  29
WHITEMAN AFB   MOSUNNY   40  30  67 N15       30.18S WCI  31
CLINTON        PTSUNNY   39  32  75 N12       30.19S WCI  32
SEDALIA        PTSUNNY   40  29  64 N20       30.18S WCI  30
WARSAW         NOT AVBL
MARSHALL       MOSUNNY   41  32  70 N10       30.20S WCI  35
CHILLICOTHE      N/A     40  26  57 N9        30.21S WCI  34
MOBERLY        MOSUNNY   37  27  65 N13       30.17S WCI  29
KIRKSVILLE     SUNNY     39  27  62 N15       30.16S WCI  31

$$

MOZ041-047>049-056>058-063>065-088>090-097-261600-
...EASTERN AND SOUTHERN MISSOURI...

CITY           SKY/WX    TMP DP  RH WIND       PRES   REMARKS
ST. LOUIS INTL CLOUDY    40  30  67 N16       30.09R WCI  31
SPIRIT OF STL  CLOUDY    39  29  67 N12G21    30.10R WCI  32
COLUMBIA       PTSUNNY   39  30  70 N17       30.14S WCI  30
JEFFERSON CITY CLOUDY    39  28  64 N9G20     30.16R WCI  33
MEXICO         MOSUNNY   39  34  81 N15       30.14S WCI  31
HANNIBAL       SUNNY     39  25  56 NW15      30.13S WCI  31
ROLLA          CLOUDY    37  29  72 MISG      30.09R
LEBANON        CLOUDY    39  30  70 N13G20    30.14R WCI  32
OSAGE BEACH    CLOUDY    37  27  65 N8G18     30.15R WCI  31
SPRINGFIELD    CLOUDY    40  35  83 N17       30.12S WCI  31
BRANSON        LGT RAIN  39  39 100 N14G24    30.12R WCI  31
NEVADA         PTSUNNY   41  32  70 N15       30.20S WCI  33
JOPLIN         MOSUNNY   44  32  62 N15G22    30.17S
WEST PLAINS    LGT RAIN  40  36  86 MISG      30.07R

$$

IAZ060-094-KSZ022-034>040-054-083-096-NEZ052-066-093-261600-
...KANSAS...SOUTHEAST NEBRASKA AND IOWA...

CITY           SKY/WX    TMP DP  RH WIND       PRES   REMARKS
TOPEKA         SUNNY     40  30  67 N7        30.25F
MANHATTAN      SUNNY     38  30  73 NE5       30.27R WCI  34
EMPORIA        SUNNY     40  29  64 N10       30.23S WCI  33
CHANUTE        SUNNY     43  33  68 N13       30.22R
WICHITA        MOSUNNY   42  29  59 N10       30.26S
OMAHA          MOSUNNY   37  26  64 NW6       30.24S WCI  32
LINCOLN        SUNNY     38  27  64 CALM      30.26S
FALLS CITY     SUNNY     36  29  75 NW9       30.24S WCI  29
LAMONI         SUNNY     39  24  55 NW16      30.18S WCI  30
DES MOINES     MOSUNNY   39  23  52 NW13      30.18R WCI  31

$$



USA.gov is the U.S. government's official web portal to all federal, state and local government web resources and services.